RH
49 44 46 46 47 55 57 47 55 31 37 26 24 26 28 34 51 70 78 84 91 95 97 93 85 81 75 75 77 89 76 74 63 53 50 46 27 23 21 18 29 54 70 79
55 40 45 47 46 49 48 44 49 41 41 26 23 25 30 38 57 82 84 89 92 96 98 91 81 75 73 83 84 81 76 78 70 57 49 48 29 24 24 18 31 54 73 80
57 45 45 48 45 44 44 41 37 37 26 28 27 27 29 37 61 88 94 97 96 97 96 77 74 74 74 81 90 86 83 83 72 57 54 45 29 26 23 20 32 55 70 77
61 48 42 39 39 36 36 32 31 32 31 30 31 28 31 40 66 92 97 96 96 97 93 76 79 71 72 79 95 86 87 81 71 56 54 42 30 27 23 21 41 57 65 70
68 64 41 39 40 38 35 33 33 32 33 30 26 28 25 38 63 94 98 98 99 99 96 79 79 76 70 73 95 88 82 82 71 59 52 37 31 26 22 26 45 58 67 68
70 70 52 42 39 34 35 37 31 29 31 30 25 32 27 31 53 88 98 98 97 97 97 88 82 79 75 65 87 85 76 78 72 63 52 35 33 26 22 43 49 58 64 67
73 72 56 41 37 34 28 29 28 26 28 31 33 32 32 33 52 85 98 97 98 98 98 82 77 81 78 60 72 84 78 76 71 59 52 35 34 27 27 46 64 60 62 72
71 71 55 42 39 32 29 27 25 25 27 32 30 24 31 33 41 77 95 93 95 97 94 79 81 75 88 69 70 78 72 69 62 57 48 41 34 30 38 59 65 64 64 73
63 57 50 45 39 31 27 27 26 25 26 30 30 23 28 33 34 64 93 97 98 97 96 97 72 71 75 66 69 71 73 71 61 51 40 37 32 38 52 69 62 68 69 74
54 53 48 44 36 30 26 27 26 24 24 27 30 23 26 33 30 43 76 96 97 97 96 88 81 57 64 74 71 65 65 60 43 39 37 31 31 30 59 76 68 70 72 78
56 55 46 39 32 28 26 25 24 21 23 26 29 24 23 32 31 32 60 84 97 97 97 90 75 69 58 61 63 61 53 40 36 34 29 27 44 46 66 68 64 63 73 74
59 52 44 37 32 29 26 25 23 23 23 24 27 25 22 26 29 31 39 66 89 97 97 96 79 66 61 58 49 45 40 36 34 30 23 23 23 18 50 59 62 71 71 80
54 49 42 36 32 29 27 24 22 23 24 24 24 26 21 22 26 26 28 48 73 90 96 97 96 79 59 55 52 45 34 33 28 32 26 16 28 34 48 67 72 77 87 94
54 49 43 34 31 28 26 24 23 22 22 22 22 23 20 20 23 24 25 28 59 79 96 97 97 96 92 76 53 40 35 32 26 22 33 44 62 63 70 75 80 87 91 93
57 49 42 35 30 27 27 25 22 21 20 19 19 21 21 21 21 25 25 23 32 67 81 93 97 97 97 96 92 88 80 81 89 89 96 88 78 90 87 81 82 86 88 89
56 53 44 35 29 28 27 24 23 21 20 20 20 21 20 20 20 22 23 21 23 38 67 78 91 97 97 98 98 98 98 98 98 97 98 99 99 83 90 86 85 89 90 90
56 54 43 35 30 29 27 24 23 22 21 20 20 20 21 20 19 18 19 22 21 24 47 66 77 88 96 97 98 99 99 96 98 97 93 85 98 91 83 90 85 84 91 85
59 51 41 34 31 28 25 24 24 22 21 19 20 20 20 21 22 23 21 20 19 18 25 55 68 76 85 92 97 98 98 98 99 95 99 99 98 96 92 85 88 87 87 88
56 48 38 34 31 27 25 24 24 22 20 19 18 18 21 21 21 22 23 21 19 21 19 29 60 68 78 81 85 91 95 97 98 98 97 98 97 98 97 97 90 91 91 94
50 40 38 36 31 27 26 24 23 22 20 19 20 19 18 20 21 21 24 25 26 26 26 23 35 65 72 84 83 82 89 91 97 98 98 98 94 98 99 99 99 98 95 99
45 39 39 34 29 27 26 25 23 22 21 21 21 21 21 22 24 26 23 23 24 25 25 26 24 44 69 78 83 82 83 81 86 93 98 98 94 97 93 94 96 98 99 98
42 40 38 33 29 27 26 25 23 23 22 21 23 23 23 22 22 27 31 31 28 28 27 27 31 33 47 73 83 85 84 83 81 79 86 94 98 98 98 96 98 97 98 97
42 42 37 32 29 27 26 25 25 24 22 23 23 23 25 27 27 27 25 29 31 31 30 30 33 35 37 59 83 90 91 87 84 83 82 85 90 94 96 98 99 99 98 98
46 42 37 31 28 26 26 26 25 25 24 26 25 25 25 26 30 32 34 35 34 33 33 34 35 38 42 45 73 95 96 95 90 87 86 86 86 86 92 96 98 99 99 99
49 42 35 31 29 28 27 27 27 26 25 26 27 27 26 28 30 32 33 34 34 35 36 38 40 42 44 48 54 89 97 97 97 95 92 93 93 91 90 89 97 98 98 98
46 40 35 32 30 28 28 28 27 26 26 26 27 27 28 30 33 35 34 35 37 38 39 40 43 45 48 52 59 80 96 96 97 97 97 94 95 94 93 91 90 95 97 98
47 40 36 33 31 29 29 29 28 26 26 27 27 28 29 32 34 35 36 37 39 40 42 45 48 52 56 59 63 78 96 97 97 97 97 97 97 97 97 97 95 92 94 97